User: anonymous
Location: Caltech
(34.1382°N, 118.1253°W)
Time: 17:18:13
(UTC-07:00)
Language:

SPOT 1/Viking Rocket - Orbit

View from above orbital plane
View from above orbital plane
View from above satellite
View from above satellite

Ground track
Ground track

The orbit data is extracted from the following two-line orbital elements,

1 16615U 86019C   14265.15564061  .00000165  00000-0  79504-4 0  4973
2 16615 098.7475 317.0206 0012986 102.1566 318.7685 14.31306554496567
Epoch (UTC): 22 September 2014 03:44:07
Eccentricity: 0.0012986
inclination: 98.7475°
perigee height: 778 km
apogee height: 796 km
right ascension of ascending node: 317.0206°
argument of perigee: 102.1566°
revolutions per day: 14.31306554
mean anomaly at epoch: 318.7685°
orbit number at epoch: 49656

The dashed part of the orbit path shows where the satellite is in the earth's shadow,  

DLR